KD8GIJ-3 Weather Reports


time (UTC)temp
C
wind
direction
speed
KPH
gust
KPH
rain 1hr
cm
rain 24hr
cm
rain mn
cm
humidity
%
barometer
mb
20260510104158 19 191 3.2 8.0 0.00 0.00 0.00 63 1009.4
20260510103258 19 191 3.2 8.0 0.00 0.00 0.00 63 1009.2
20260510102358 19 191 3.2 8.0 0.00 0.00 0.00 63 1009.1
20260510101458 19 191 3.2 8.0 0.00 0.00 0.00 63 1008.8
20260510100558 19 191 3.2 8.0 0.00 0.00 0.00 63 1008.5
20260510095658 19 191 3.2 8.0 0.00 0.00 0.00 63 1008.3
20260510094758 19 191 3.2 8.0 0.00 0.00 0.00 63 1008.3
20260510093858 19 191 3.2 8.0 0.00 0.00 0.00 63 1008.1
20260510092958 19 191 3.2 8.0 0.00 0.00 0.00 63 1007.9
20260510092058 19 191 3.2 8.0 0.00 0.00 0.00 63 1007.8
20260510091158 19 191 3.2 8.0 0.00 0.00 0.00 63 1007.8
20260510090258 19 191 3.2 8.0 0.00 0.00 0.00 63 1007.7
20260510085358 19 191 3.2 8.0 0.00 0.00 0.00 63 1007.9
20260510084458 19 191 3.2 8.0 0.00 0.00 0.00 63 1007.8
20260510083558 19 191 3.2 8.0 0.00 0.00 0.00 63 1007.7
20260510082658 19 191 3.2 8.0 0.00 0.00 0.00 63 1007.9
20260510081758 19 191 3.2 8.0 0.00 0.00 0.00 63 1007.8
20260510080858 19 191 3.2 8.0 0.00 0.00 0.00 63 1007.8
20260510075958 19 191 3.2 8.0 0.00 0.00 0.00 63 1007.8
20260510075058 19 191 3.2 8.0 0.00 0.00 0.00 63 1007.7
20260510074158 19 191 3.2 8.0 0.00 0.00 0.00 63 1007.6
20260510073258 19 191 3.2 8.0 0.00 0.00 0.00 63 1007.6
20260510072358 19 191 3.2 8.0 0.00 0.00 0.00 63 1007.8
20260510071458 19 191 3.2 8.0 0.00 0.00 0.00 63 1007.8
20260510070558 19 191 3.2 8.0 0.00 0.00 0.00 63 1007.7
20260510065658 19 191 3.2 8.0 0.00 0.00 0.00 63 1007.4
20260510064758 19 191 3.2 8.0 0.00 0.00 0.00 63 1007.3
20260510063858 19 191 3.2 8.0 0.00 0.00 0.00 63 1007.4
20260510062958 19 191 3.2 8.0 0.00 0.00 0.00 63 1007.4
20260510062058 19 191 3.2 8.0 0.00 0.00 0.00 63 1007.4
20260510061158 19 191 3.2 8.0 0.00 0.00 0.00 63 1007.3
20260510060258 19 191 3.2 8.0 0.00 0.00 0.00 63 1007.3
20260510055358 19 191 3.2 8.0 0.00 0.00 0.00 63 1007.2
20260510054458 19 191 3.2 8.0 0.00 0.00 0.00 63 1007.2
20260510053558 19 191 3.2 8.0 0.00 0.00 0.00 63 1007.2
20260510052658 19 191 3.2 8.0 0.00 0.00 0.00 63 1007.3
20260510050858 19 191 3.2 8.0 0.00 0.00 0.00 63 1007.2
20260510045058 19 191 3.2 8.0 0.00 0.00 0.00 63 1007.1
20260510044158 19 191 3.2 8.0 0.00 0.00 0.00 63 1007.1
20260510043258 19 191 3.2 8.0 0.00 0.00 0.00 63 1007.1
20260510042358 19 191 3.2 8.0 0.00 0.00 0.00 63 1007.0
20260510041458 19 191 3.2 8.0 0.00 0.00 0.00 63 1007.0
20260510040558 19 191 3.2 8.0 0.00 0.00 0.00 63 1007.0
20260510035658 19 191 3.2 8.0 0.00 0.00 0.00 63 1006.9
20260510034757 19 191 3.2 8.0 0.00 0.00 0.00 63 1007.0
20260510033858 19 191 3.2 8.0 0.00 0.00 0.00 63 1007.0
20260510032958 19 191 3.2 8.0 0.00 0.00 0.00 63 1007.0
20260510032058 19 191 3.2 8.0 0.00 0.00 0.00 63 1007.1
20260510031158 19 191 3.2 8.0 0.00 0.00 0.00 63 1007.4
20260510030258 19 191 3.2 8.0 0.00 0.00 0.00 63 1007.0
20260510024458 19 191 3.2 8.0 0.00 0.00 0.00 63 1006.5
20260510023558 19 191 3.2 8.0 0.00 0.00 0.00 63 1006.4
20260510022658 19 191 3.2 8.0 0.00 0.00 0.00 63 1006.2
20260510021757 19 191 3.2 8.0 0.00 0.00 0.00 63 1006.2
20260510020858 19 191 3.2 8.0 0.00 0.00 0.00 63 1006.1
20260510015958 19 191 3.2 8.0 0.00 0.00 0.00 63 1006.0
20260510015058 19 191 3.2 8.0 0.00 0.00 0.00 63 1005.8
20260510014158 19 191 3.2 8.0 0.00 0.00 0.00 63 1005.7
20260510013258 19 191 3.2 8.0 0.00 0.00 0.00 63 1005.7
20260510012358 19 191 3.2 8.0 0.00 0.00 0.00 63 1005.6
20260510011458 19 191 3.2 8.0 0.00 0.00 0.00 63 1005.4
20260510010558 19 191 3.2 8.0 0.00 0.00 0.00 63 1005.2
20260510005658 19 191 3.2 8.0 0.00 0.00 0.00 63 1005.3
20260510004758 19 191 3.2 8.0 0.00 0.00 0.00 63 1005.2
20260510003858 19 191 3.2 8.0 0.00 0.00 0.00 63 1005.2
20260510002058 19 191 3.2 8.0 0.00 0.00 0.00 63 1005.1
20260510001158 19 191 3.2 8.0 0.00 0.00 0.00 63 1005.1
20260510000258 19 190 4.8 8.0 0.00 0.00 0.00 63 1004.9
20260509235358 20 176 6.4 12.9 0.00 0.00 0.00 61 1004.7
20260509234458 20 172 8.0 19.3 0.00 0.00 0.00 61 1004.5
20260509233558 20 169 8.0 19.3 0.00 0.00 0.00 60 1004.6
20260509232658 20 165 8.0 17.7 0.00 0.00 0.00 59 1004.6
20260509231758 20 171 8.0 19.3 0.00 0.00 0.00 58 1004.6
20260509230857 21 173 9.7 24.1 0.00 0.00 0.00 57 1004.5
20260509225958 21 169 8.0 17.7 0.00 0.00 0.00 56 1004.5
20260509225058 21 173 8.0 16.1 0.00 0.00 0.00 56 1004.5
20260509224157 21 168 9.7 19.3 0.00 0.00 0.00 56 1004.7
20260509223257 21 175 9.7 19.3 0.00 0.00 0.00 55 1004.8
20260509222358 21 171 9.7 19.3 0.00 0.00 0.00 54 1004.8
20260509221458 21 173 8.0 19.3 0.00 0.00 0.00 54 1004.8
20260509220558 21 173 9.7 22.5 0.00 0.00 0.00 53 1004.9
20260509215658 21 170 8.0 16.1 0.00 0.00 0.00 54 1004.9
20260509214758 21 168 6.4 14.5 0.00 0.00 0.00 54 1004.8
20260509213857 21 161 6.4 16.1 0.00 0.00 0.00 56 1004.8
20260509212958 21 158 6.4 17.7 0.00 0.00 0.00 58 1004.9
20260509212058 21 169 6.4 14.5 0.00 0.00 0.00 57 1005.1
20260509211157 21 179 6.4 16.1 0.00 0.00 0.00 58 1005.2
20260509210258 21 169 8.0 22.5 0.00 0.00 0.00 56 1005.1
20260509205357 21 158 8.0 19.3 0.00 0.00 0.00 56 1005.1
20260509204457 21 166 8.0 16.1 0.00 0.00 0.00 56 1005.2
20260509203557 21 160 8.0 16.1 0.00 0.00 0.00 57 1005.2
20260509202657 21 178 8.0 16.1 0.00 0.00 0.00 59 1005.3
20260509201757 21 187 6.4 16.1 0.00 0.00 0.00 59 1005.6
20260509200857 20 158 8.0 22.5 0.00 0.00 0.00 63 1005.6
20260509195058 21 165 6.4 17.7 0.00 0.00 0.00 61 1005.7
20260509194157 20 161 8.0 22.5 0.00 0.00 0.00 63 1005.7
20260509193258 20 163 6.4 14.5 0.00 0.00 0.00 65 1005.8
20260509192359 20 167 8.0 17.7 0.00 0.00 0.00 64 1005.9
20260509191457 20 170 6.4 16.1 0.00 0.00 0.00 66 1006.1
20260509190558 19 164 8.0 17.7 0.00 0.00 0.00 67 1006.2
20260509185657 18 175 6.4 14.5 0.00 0.00 0.00 68 1006.4
20260509184757 18 157 6.4 14.5 0.00 0.00 0.00 67 1006.4
20260509183857 18 156 4.8 11.3 0.00 0.00 0.00 70 1006.6
20260509182957 18 150 3.2 12.9 0.00 0.00 0.00 71 1006.8
20260509181157 18 156 3.2 9.7 0.00 0.00 0.00 76 1006.8
20260509180258 17 149 3.2 9.7 0.00 0.00 0.00 75 1006.7
20260509175358 17 165 3.2 9.7 0.00 0.00 0.00 75 1006.7
20260509173600 16 155 4.8 16.1 0.00 0.00 0.00 80 1006.9
20260509172658 16 161 4.8 16.1 0.00 0.00 0.00 80 1007.0
20260509171757 16 159 4.8 11.3 0.00 0.00 0.00 82 1006.9
20260509170857 15 161 4.8 12.9 0.00 0.00 0.00 83 1006.9
20260509165958 15 171 8.0 14.5 0.00 0.00 0.00 83 1007.0
20260509165058 15 175 8.0 17.7 0.00 0.00 0.00 84 1007.0
20260509164157 15 181 8.0 16.1 0.00 0.00 0.00 84 1006.9
20260509163257 15 179 6.4 14.5 0.00 0.00 0.00 87 1006.8
20260509162357 14 175 4.8 12.9 0.00 0.00 0.00 88 1006.7
20260509161457 14 177 1.6 16.1 0.00 0.00 0.00 88 1006.7
20260509160557 13 158 1.6 6.4 0.00 0.00 0.00 90 1006.5
20260509155657 13 175 1.6 8.0 0.00 0.00 0.00 90 1006.5
20260509152957 13 181 1.6 9.7 0.00 0.00 0.00 91 1006.2
20260509152058 13 169 3.2 11.3 0.00 0.00 0.00 91 1006.4
20260509151157 13 176 4.8 9.7 0.00 0.00 0.00 92 1006.4
20260509144457 22 159 3.2 8.0 0.00 0.00 0.00 51 1006.2
20260509143558 22 159 3.2 8.0 0.00 0.00 0.00 51 1006.4
20260509142657 22 159 3.2 8.0 0.00 0.00 0.00 51 1006.6
20260509141757 22 159 3.2 8.0 0.00 0.00 0.00 51 1006.7
20260509140858 22 159 3.2 8.0 0.00 0.00 0.00 51 1006.7
20260509134157 22 159 3.2 8.0 0.00 0.00 0.00 51 1007.0
20260509133257 22 159 3.2 8.0 0.00 0.00 0.00 51 1007.0
20260509132358 22 159 3.2 8.0 0.00 0.00 0.00 51 1007.1
20260509131457 22 159 3.2 8.0 0.00 0.00 0.00 51 1007.0
20260509130557 22 159 3.2 8.0 0.00 0.00 0.00 51 1006.9
20260509125657 22 159 3.2 8.0 0.00 0.00 0.00 51 1007.1
20260509124757 22 159 3.2 8.0 0.00 0.00 0.00 51 1007.1
20260509123857 22 159 3.2 8.0 0.00 0.00 0.00 51 1007.2
20260509122957 22 159 3.2 8.0 0.00 0.00 0.00 51 1007.3
20260509122057 22 159 3.2 8.0 0.00 0.00 0.00 51 1007.4
20260509120257 22 159 3.2 8.0 0.00 0.00 0.00 51 1007.4
20260509115357 22 159 3.2 8.0 0.00 0.00 0.00 51 1007.3
20260509113558 22 159 3.2 8.0 0.00 0.00 0.00 51 1007.2
20260509112658 22 159 3.2 8.0 0.00 0.00 0.00 51 1007.2
20260509111757 22 159 3.2 8.0 0.00 0.00 0.00 51 1007.1
20260509105957 22 159 3.2 8.0 0.00 0.00 0.00 51 1006.9
20260509105057 22 159 3.2 8.0 0.00 0.00 0.00 51 1006.8